Alexandria, Egypt

9:58 AM EET on January 16, 2018 (GMT +0200)
Alexandria

Weather History for 62318 - November, 2013

Change the Weather History Date:

Saturday, November 2, 2013

  Actual Average Record
Temperature  
Mean Temperature 74 °F -  
Max Temperature 80 °F 72 °F - ()
Min Temperature 69 °F 56 °F - ()
Cooling Degree Days 10    
Growing Degree Days 24 (Base 50)    
Moisture  
Dew Point 65 °F    
Average Humidity 77    
Maximum Humidity 88    
Minimum Humidity 58    
Precipitation  
Precipitation 0.00 in 0.04 in - ()
Sea Level Pressure  
Sea Level Pressure 30.03 in    
Wind  
Wind Speed 6 mph ()    
Max Wind Speed 12 mph    
Max Gust Speed -    
Visibility 6.2 miles    
Events      
T = Trace of Precipitation, MM = Missing Value Source: Averaged Metar Reports

Daily Weather History Graph

Daily Weather History Graph

Search for Another Location

Airport or City:

Trip Planner

Search our weather history database for the weather conditions in past years. The results will help you decide how hot, cold, wet, or windy it might be!

Date:

Astronomy

Nov. 02, 2013 Rise Set
Actual Time 6:16 AM EET 5:10 PM EET
Civil Twilight 5:51 AM EET 5:35 PM EET
Nautical Twilight 5:22 AM EET 6:04 PM EET
Astronomical Twilight 4:54 AM EET 6:32 PM EET
Moon 4:56 AM EET (11/2) 4:26 PM EET (11/2)
Length of Visible Light 11h 44m
Length of Day
10h 54m
Waning Crescent, 2% of the Moon is Illuminated
Nov 2
Waning Crescent
Nov 3
New
Nov 10
First Quarter
Nov 17
Full
Nov 25
Last Quarter

Hourly Weather History & Observations

Time (EET) Temp. Heat Index Dew Point Humidity Pressure Visibility Wind Dir Wind Speed Gust Speed Precip Events Conditions
12:00 AM 69.8 °F - 66.2 °F 88% 30.01 in - North 6.9 mph - N/A   Clear
1:00 AM 69.8 °F - 66.2 °F 88% 30.01 in - North 6.9 mph - N/A   Clear
2:00 AM 69.8 °F - 64.4 °F 83% 30.01 in - NNW 4.6 mph - N/A   Clear
3:00 AM 69.8 °F - 62.6 °F 78% 30.01 in - North 6.9 mph - N/A   Clear
4:00 AM 69.8 °F - 64.4 °F 83% 30.01 in 6.2 mi NNW 2.3 mph - N/A   Scattered Clouds
5:00 AM 69.8 °F - 64.4 °F 83% 30.01 in 6.2 mi North 4.6 mph - N/A   Scattered Clouds
6:00 AM 69.8 °F - 64.4 °F 83% 30.01 in 6.2 mi North 4.6 mph - N/A   Scattered Clouds
8:00 AM 73.4 °F - 66.2 °F 78% 30.04 in 6.2 mi NNE 6.9 mph - N/A   Scattered Clouds
9:00 AM 75.2 °F - 66.2 °F 73% 30.04 in 6.2 mi NE 8.1 mph - N/A   Scattered Clouds
10:00 AM 69.8 °F - 66.2 °F 88% 30.04 in 6.2 mi NNE 5.8 mph - N/A   Scattered Clouds
11:00 AM 78.8 °F - 64.4 °F 61% 30.09 in 6.2 mi NE 6.9 mph - N/A   Partly Cloudy
12:00 PM 80.6 °F 82.3 °F 64.4 °F 58% 30.04 in 6.2 mi NNE 5.8 mph - N/A   Partly Cloudy
1:00 PM 78.8 °F - 66.2 °F 65% 30.01 in 6.2 mi NNE 6.9 mph - N/A   Partly Cloudy
2:00 PM 78.8 °F - 66.2 °F 65% 30.01 in 6.2 mi NNW 6.9 mph - N/A   Partly Cloudy
3:00 PM 77.0 °F - 64.4 °F 65% 30.01 in - North 11.5 mph - N/A   Clear
4:00 PM 75.2 °F - 66.2 °F 73% 30.01 in - North 8.1 mph - N/A   Clear
5:00 PM 73.4 °F - 66.2 °F 78% 30.01 in - North 5.8 mph - N/A   Clear
6:00 PM 71.6 °F - 64.4 °F 78% 30.01 in - North 6.9 mph - N/A   Clear
7:00 PM 71.6 °F - 64.4 °F 78% 30.04 in - North 5.8 mph - N/A   Clear
8:00 PM 71.6 °F - 64.4 °F 78% 30.04 in - NNE 5.8 mph - N/A   Clear
9:00 PM 71.6 °F - 64.4 °F 78% 30.04 in - North 8.1 mph - N/A   Clear
10:00 PM 69.8 °F - 64.4 °F 83% 30.06 in - North 6.9 mph - N/A   Clear
11:00 PM 69.8 °F - 64.4 °F 83% 30.06 in - North 5.8 mph - N/A   Clear